Weather History for Blythe, CA

Change the Weather History Date:

Tuesday, March 5, 2013

  Actual Average Record
Temperature  
Mean Temperature 64 °F -  
Max Temperature 80 °F 73 °F 90 °F (1986)
Min Temperature 48 °F 47 °F 34 °F (2002)
Degree Days  
Heating Degree Days 1    
Growing Degree Days 14 (Base 50)    
Moisture  
Dew Point 37 °F    
Average Humidity 37    
Maximum Humidity 59    
Minimum Humidity 21    
Precipitation  
Precipitation 0.00 in - - ()
Sea Level Pressure  
Sea Level Pressure 29.98 in    
Wind  
Wind Speed 4 mph (South)    
Max Wind Speed 12 mph    
Max Gust Speed -    
Visibility 10 miles    
Events      
Averages and records for this station are not official NWS values.
T = Trace of Precipitation, MM = Missing Value Source: NWS Daily Summary

Daily Weather History Graph

Daily Weather History Graph

Search for Another Location

Airport:

Trip Planner

Search our weather history database for the weather conditions in past years. The results will help you decide how hot, cold, wet, or windy it might be!

Date:

Astronomy

Mar. 05, 2013 Rise Set
Actual Time 6:01 AM PST 5:39 PM PST
Civil Twilight 5:36 AM PST 6:04 PM PST
Nautical Twilight 5:08 AM PST 6:32 PM PST
Astronomical Twilight 4:39 AM PST 7:01 PM PST
Moon 1:05 AM PST (3/5) 11:34 AM PST (3/5)
Length of Visible Light 12h 27m
Length of Day
11h 37m
Last Quarter, 39% of the Moon is Illuminated
Mar 5
Last Quarter
Mar 11
New
Mar 19
First Quarter
Mar 27
Full
Apr 2
Last Quarter

Hourly Weather History & Observations

Time (PST) Temp. Dew Point Humidity Pressure Visibility Wind Dir Wind Speed Gust Speed Precip Events Conditions
12:52 AM 54.0 °F 34.0 °F 47% 30.01 in 10.0 mi Calm Calm - N/A   Clear
1:52 AM 53.1 °F 33.1 °F 47% 30.01 in 10.0 mi North 6.9 mph - N/A   Clear
2:52 AM 52.0 °F 33.1 °F 49% 30.00 in 10.0 mi North 8.1 mph - N/A   Clear
3:52 AM 54.0 °F 34.0 °F 47% 30.00 in 10.0 mi Calm Calm - N/A   Clear
4:52 AM 52.0 °F 34.0 °F 50% 30.02 in 10.0 mi NW 4.6 mph - N/A   Clear
5:52 AM 48.9 °F 34.0 °F 56% 30.04 in 10.0 mi ESE 4.6 mph - N/A   Clear
6:52 AM 52.0 °F 37.9 °F 59% 30.04 in 10.0 mi SSE 5.8 mph - N/A   Clear
7:52 AM 55.0 °F 37.9 °F 53% 30.06 in 10.0 mi Calm Calm - N/A   Clear
8:52 AM 61.0 °F 37.9 °F 42% 30.07 in 10.0 mi Calm Calm - N/A   Clear
9:52 AM 64.9 °F 37.9 °F 37% 30.06 in 10.0 mi Calm Calm - N/A   Clear
10:52 AM 69.1 °F 37.9 °F 32% 30.05 in 10.0 mi East 4.6 mph - N/A   Clear
11:52 AM 73.0 °F 39.0 °F 29% 30.02 in 10.0 mi Variable 3.5 mph - N/A   Clear
12:52 PM 75.9 °F 37.9 °F 25% 29.99 in 10.0 mi Calm Calm - N/A   Clear
1:52 PM 78.1 °F 37.0 °F 23% 29.96 in 10.0 mi South 8.1 mph - N/A   Clear
2:52 PM 80.1 °F 37.0 °F 21% 29.93 in 10.0 mi South 11.5 mph - N/A   Clear
3:52 PM 79.0 °F 37.0 °F 22% 29.92 in 10.0 mi South 11.5 mph - N/A   Clear
4:52 PM 78.1 °F 36.0 °F 22% 29.91 in 10.0 mi South 11.5 mph - N/A   Clear
5:52 PM 73.0 °F 37.9 °F 28% 29.91 in 10.0 mi South 8.1 mph - N/A   Clear
6:52 PM 71.1 °F 37.0 °F 29% 29.92 in 10.0 mi South 8.1 mph - N/A   Clear
7:52 PM 66.9 °F 37.0 °F 33% 29.93 in 10.0 mi South 5.8 mph - N/A   Clear
8:52 PM 66.9 °F 37.0 °F 33% 29.93 in 10.0 mi South 8.1 mph - N/A   Clear
9:52 PM 64.9 °F 37.9 °F 37% 29.93 in 10.0 mi South 9.2 mph - N/A   Clear
10:52 PM 66.0 °F 37.9 °F 36% 29.92 in 10.0 mi SSW 5.8 mph - N/A   Clear
11:52 PM 64.0 °F 37.9 °F 38% 29.93 in 10.0 mi WSW 5.8 mph - N/A   Clear